owner,sensor,date,latitude,longitude,vertical_datum,sea_water_temperature,qcFlag 
TABS,ioos:station:wmo:42050:1,1996-11-07T08:30:00Z,28.8425,-94.2433,-2.0,23.38,11111222 
TABS,ioos:station:wmo:42050:1,1996-11-07T09:00:00Z,28.8425,-94.2433,-2.0,23.38,11111222 
TABS,ioos:station:wmo:42050:1,1996-11-07T09:30:00Z,28.8425,-94.2433,-2.0,23.38,11111222 
TABS,ioos:station:wmo:42050:1,1996-11-07T10:00:00Z,28.8425,-94.2433,-2.0,23.38,11111222 
TABS,ioos:station:wmo:42050:1,1996-11-07T10:30:00Z,28.8425,-94.2433,-2.0,23.38,11111222 
TABS,ioos:station:wmo:42050:1,1996-11-07T11:00:00Z,28.8425,-94.2433,-2.0,23.38,11111222 
TABS,ioos:station:wmo:42050:1,1996-11-07T11:30:00Z,28.8425,-94.2433,-2.0,23.38,11111222 
TABS,ioos:station:wmo:42050:1,1996-11-07T12:00:00Z,28.8425,-94.2433,-2.0,23.38,11111222 
TABS,ioos:station:wmo:42050:1,1996-11-07T12:30:00Z,28.8425,-94.2433,-2.0,23.37,11111222 
TABS,ioos:station:wmo:42050:1,1996-11-07T13:00:00Z,28.8425,-94.2433,-2.0,23.37,11111222 
TABS,ioos:station:wmo:42050:1,1996-11-07T13:30:00Z,28.8425,-94.2433,-2.0,23.37,11111222 
TABS,ioos:station:wmo:42050:1,1996-11-07T14:00:00Z,28.8425,-94.2433,-2.0,23.38,11111222 
TABS,ioos:station:wmo:42050:1,1996-11-07T14:30:00Z,28.8425,-94.2433,-2.0,23.39,11111222 
TABS,ioos:station:wmo:42050:1,1996-11-07T15:00:00Z,28.8425,-94.2433,-2.0,23.38,11111222 
TABS,ioos:station:wmo:42050:1,1996-11-07T15:30:00Z,28.8425,-94.2433,-2.0,23.37,11111222 
TABS,ioos:station:wmo:42050:1,1996-11-07T16:00:00Z,28.8425,-94.2433,-2.0,23.35,11111222 
TABS,ioos:station:wmo:42050:1,1996-11-07T16:30:00Z,28.8425,-94.2433,-2.0,23.33,11111222 
TABS,ioos:station:wmo:42050:1,1996-11-07T17:00:00Z,28.8425,-94.2433,-2.0,23.33,11111222 
TABS,ioos:station:wmo:42050:1,1996-11-07T17:30:00Z,28.8425,-94.2433,-2.0,23.33,11111222 
TABS,ioos:station:wmo:42050:1,1996-11-07T18:00:00Z,28.8425,-94.2433,-2.0,23.32,11111222 
TABS,ioos:station:wmo:42050:1,1996-11-07T18:30:00Z,28.8425,-94.2433,-2.0,23.32,11111222 
TABS,ioos:station:wmo:42050:1,1996-11-07T19:00:00Z,28.8425,-94.2433,-2.0,23.31,11111222 
TABS,ioos:station:wmo:42050:1,1996-11-07T19:30:00Z,28.8425,-94.2433,-2.0,23.33,11111222 
TABS,ioos:station:wmo:42050:1,1996-11-07T20:00:00Z,28.8425,-94.2433,-2.0,23.33,11111222 
TABS,ioos:station:wmo:42050:1,1996-11-07T20:30:00Z,28.8425,-94.2433,-2.0,23.34,11111222 
TABS,ioos:station:wmo:42050:1,1996-11-07T21:00:00Z,28.8425,-94.2433,-2.0,23.34,11111222 
TABS,ioos:station:wmo:42050:1,1996-11-07T21:30:00Z,28.8425,-94.2433,-2.0,23.35,11111222 
TABS,ioos:station:wmo:42050:1,1996-11-07T22:00:00Z,28.8425,-94.2433,-2.0,23.34,11111222 
TABS,ioos:station:wmo:42050:1,1996-11-07T22:30:00Z,28.8425,-94.2433,-2.0,23.35,11111222 
TABS,ioos:station:wmo:42050:1,1996-11-07T23:00:00Z,28.8425,-94.2433,-2.0,23.34,11111222 
TABS,ioos:station:wmo:42050:1,1996-11-07T23:30:00Z,28.8425,-94.2433,-2.0,23.34,11111222 
TABS,ioos:station:wmo:42050:1,1996-11-08T00:00:00Z,28.8425,-94.2433,-2.0,23.34,11111222 
TABS,ioos:station:wmo:42050:1,1996-11-08T00:30:00Z,28.8425,-94.2433,-2.0,23.34,11111222 
TABS,ioos:station:wmo:42050:1,1996-11-08T01:00:00Z,28.8425,-94.2433,-2.0,23.32,11111222 
TABS,ioos:station:wmo:42050:1,1996-11-08T01:30:00Z,28.8425,-94.2433,-2.0,23.32,11111222 
TABS,ioos:station:wmo:42050:1,1996-11-08T02:00:00Z,28.8425,-94.2433,-2.0,23.32,11111222 
TABS,ioos:station:wmo:42050:1,1996-11-08T02:30:00Z,28.8425,-94.2433,-2.0,23.32,11111222 
TABS,ioos:station:wmo:42050:1,1996-11-08T03:00:00Z,28.8425,-94.2433,-2.0,23.31,11111222 
TABS,ioos:station:wmo:42050:1,1996-11-08T03:30:00Z,28.8425,-94.2433,-2.0,23.31,11111222 
TABS,ioos:station:wmo:42050:1,1996-11-08T04:00:00Z,28.8425,-94.2433,-2.0,23.31,11111222 
TABS,ioos:station:wmo:42050:1,1996-11-08T04:30:00Z,28.8425,-94.2433,-2.0,23.32,11111222 
TABS,ioos:station:wmo:42050:1,1996-11-08T05:00:00Z,28.8425,-94.2433,-2.0,23.3,11111222 
TABS,ioos:station:wmo:42050:1,1996-11-08T05:30:00Z,28.8425,-94.2433,-2.0,23.32,11111222 
TABS,ioos:station:wmo:42050:1,1996-11-08T06:00:00Z,28.8425,-94.2433,-2.0,23.3,11111222 
TABS,ioos:station:wmo:42050:1,1996-11-08T06:30:00Z,28.8425,-94.2433,-2.0,23.29,11111222 
TABS,ioos:station:wmo:42050:1,1996-11-08T07:00:00Z,28.8425,-94.2433,-2.0,23.28,11111222 
TABS,ioos:station:wmo:42050:1,1996-11-08T07:30:00Z,28.8425,-94.2433,-2.0,23.27,11111222 
TABS,ioos:station:wmo:42050:1,1996-11-08T08:00:00Z,28.8425,-94.2433,-2.0,23.25,11111222 
TABS,ioos:station:wmo:42050:1,1996-11-08T08:30:00Z,28.8425,-94.2433,-2.0,23.23,11111222 
TABS,ioos:station:wmo:42050:1,1996-11-08T09:00:00Z,28.8425,-94.2433,-2.0,23.24,11111222 
TABS,ioos:station:wmo:42050:1,1996-11-08T09:30:00Z,28.8425,-94.2433,-2.0,23.21,11111222 
TABS,ioos:station:wmo:42050:1,1996-11-08T10:00:00Z,28.8425,-94.2433,-2.0,23.22,11111222 
TABS,ioos:station:wmo:42050:1,1996-11-08T10:30:00Z,28.8425,-94.2433,-2.0,23.2,11111222 
TABS,ioos:station:wmo:42050:1,1996-11-08T11:00:00Z,28.8425,-94.2433,-2.0,23.17,11111222 
TABS,ioos:station:wmo:42050:1,1996-11-08T11:30:00Z,28.8425,-94.2433,-2.0,23.16,11111222 
TABS,ioos:station:wmo:42050:1,1996-11-08T12:00:00Z,28.8425,-94.2433,-2.0,23.15,11111222 
TABS,ioos:station:wmo:42050:1,1996-11-08T12:30:00Z,28.8425,-94.2433,-2.0,23.14,11111222 
TABS,ioos:station:wmo:42050:1,1996-11-08T13:00:00Z,28.8425,-94.2433,-2.0,23.14,11111222 
TABS,ioos:station:wmo:42050:1,1996-11-08T13:30:00Z,28.8425,-94.2433,-2.0,23.15,11111222 
TABS,ioos:station:wmo:42050:1,1996-11-08T14:00:00Z,28.8425,-94.2433,-2.0,23.16,11111222 
TABS,ioos:station:wmo:42050:1,1996-11-08T14:30:00Z,28.8425,-94.2433,-2.0,23.17,11111222 
TABS,ioos:station:wmo:42050:1,1996-11-08T15:00:00Z,28.8425,-94.2433,-2.0,22.77,11111222 
TABS,ioos:station:wmo:42050:1,1996-11-08T15:30:00Z,28.8425,-94.2433,-2.0,22.78,11111222 
TABS,ioos:station:wmo:42050:1,1996-11-08T16:00:00Z,28.8425,-94.2433,-2.0,22.8,11111222 
TABS,ioos:station:wmo:42050:1,1996-11-08T16:30:00Z,28.8425,-94.2433,-2.0,22.76,11111222 
TABS,ioos:station:wmo:42050:1,1996-11-08T17:00:00Z,28.8425,-94.2433,-2.0,22.68,11111222 
TABS,ioos:station:wmo:42050:1,1996-11-08T17:30:00Z,28.8425,-94.2433,-2.0,22.71,11111222 
TABS,ioos:station:wmo:42050:1,1996-11-08T18:00:00Z,28.8425,-94.2433,-2.0,22.71,11111222 
TABS,ioos:station:wmo:42050:1,1996-11-08T18:30:00Z,28.8425,-94.2433,-2.0,22.73,11111222 
TABS,ioos:station:wmo:42050:1,1996-11-08T19:00:00Z,28.8425,-94.2433,-2.0,22.74,11111222 
TABS,ioos:station:wmo:42050:1,1996-11-08T19:30:00Z,28.8425,-94.2433,-2.0,22.75,11111222 
TABS,ioos:station:wmo:42050:1,1996-11-08T20:00:00Z,28.8425,-94.2433,-2.0,22.74,11111222 
TABS,ioos:station:wmo:42050:1,1996-11-08T20:30:00Z,28.8425,-94.2433,-2.0,22.73,11111222 
TABS,ioos:station:wmo:42050:1,1996-11-08T21:00:00Z,28.8425,-94.2433,-2.0,22.73,11111222 
TABS,ioos:station:wmo:42050:1,1996-11-08T21:30:00Z,28.8425,-94.2433,-2.0,22.71,11111222 
TABS,ioos:station:wmo:42050:1,1996-11-08T22:00:00Z,28.8425,-94.2433,-2.0,22.73,11111222 
TABS,ioos:station:wmo:42050:1,1996-11-08T22:30:00Z,28.8425,-94.2433,-2.0,22.83,11111222 
TABS,ioos:station:wmo:42050:1,1996-11-08T23:00:00Z,28.8425,-94.2433,-2.0,23.07,11111222 
TABS,ioos:station:wmo:42050:1,1996-11-08T23:30:00Z,28.8425,-94.2433,-2.0,23.08,11111222 
TABS,ioos:station:wmo:42050:1,1996-11-09T00:00:00Z,28.8425,-94.2433,-2.0,23.08,11111222 
TABS,ioos:station:wmo:42050:1,1996-11-09T00:30:00Z,28.8425,-94.2433,-2.0,23.08,11111222 
TABS,ioos:station:wmo:42050:1,1996-11-09T01:00:00Z,28.8425,-94.2433,-2.0,23.05,11111222 
TABS,ioos:station:wmo:42050:1,1996-11-09T01:30:00Z,28.8425,-94.2433,-2.0,23.06,11111222 
TABS,ioos:station:wmo:42050:1,1996-11-09T02:00:00Z,28.8425,-94.2433,-2.0,23.04,11111222 
TABS,ioos:station:wmo:42050:1,1996-11-09T02:30:00Z,28.8425,-94.2433,-2.0,23.03,11111222 
TABS,ioos:station:wmo:42050:1,1996-11-09T03:00:00Z,28.8425,-94.2433,-2.0,23.02,11111222 
TABS,ioos:station:wmo:42050:1,1996-11-09T03:30:00Z,28.8425,-94.2433,-2.0,23.0,11111222 
TABS,ioos:station:wmo:42050:1,1996-11-09T04:00:00Z,28.8425,-94.2433,-2.0,23.01,11111222 
TABS,ioos:station:wmo:42050:1,1996-11-09T04:30:00Z,28.8425,-94.2433,-2.0,23.02,11111222 
TABS,ioos:station:wmo:42050:1,1996-11-09T05:00:00Z,28.8425,-94.2433,-2.0,23.01,11111222 
TABS,ioos:station:wmo:42050:1,1996-11-09T05:30:00Z,28.8425,-94.2433,-2.0,22.99,11111222 
TABS,ioos:station:wmo:42050:1,1996-11-09T06:00:00Z,28.8425,-94.2433,-2.0,22.99,11111222 
TABS,ioos:station:wmo:42050:1,1996-11-09T06:30:00Z,28.8425,-94.2433,-2.0,22.97,11111222 
TABS,ioos:station:wmo:42050:1,1996-11-09T07:00:00Z,28.8425,-94.2433,-2.0,22.97,11111222 
TABS,ioos:station:wmo:42050:1,1996-11-09T07:30:00Z,28.8425,-94.2433,-2.0,22.94,11111222 
TABS,ioos:station:wmo:42050:1,1996-11-09T08:00:00Z,28.8425,-94.2433,-2.0,22.93,11111222 
TABS,ioos:station:wmo:42050:1,1996-11-09T08:30:00Z,28.8425,-94.2433,-2.0,22.91,11111222 
TABS,ioos:station:wmo:42050:1,1996-11-09T09:00:00Z,28.8425,-94.2433,-2.0,22.89,11111222 
TABS,ioos:station:wmo:42050:1,1996-11-09T09:30:00Z,28.8425,-94.2433,-2.0,22.88,11111222 
TABS,ioos:station:wmo:42050:1,1996-11-09T10:00:00Z,28.8425,-94.2433,-2.0,22.86,11111222 
TABS,ioos:station:wmo:42050:1,1996-11-09T10:30:00Z,28.8425,-94.2433,-2.0,22.85,11111222 
TABS,ioos:station:wmo:42050:1,1996-11-09T11:00:00Z,28.8425,-94.2433,-2.0,22.79,11111222 
TABS,ioos:station:wmo:42050:1,1996-11-09T11:30:00Z,28.8425,-94.2433,-2.0,22.81,11111222 
TABS,ioos:station:wmo:42050:1,1996-11-09T12:00:00Z,28.8425,-94.2433,-2.0,22.76,11111222 
TABS,ioos:station:wmo:42050:1,1996-11-09T12:30:00Z,28.8425,-94.2433,-2.0,22.76,11111222 
TABS,ioos:station:wmo:42050:1,1996-11-09T13:00:00Z,28.8425,-94.2433,-2.0,22.77,11111222 
TABS,ioos:station:wmo:42050:1,1996-11-09T13:30:00Z,28.8425,-94.2433,-2.0,22.74,11111222 
TABS,ioos:station:wmo:42050:1,1996-11-09T14:00:00Z,28.8425,-94.2433,-2.0,22.76,11111222 
TABS,ioos:station:wmo:42050:1,1996-11-09T14:30:00Z,28.8425,-94.2433,-2.0,22.77,11111222 
TABS,ioos:station:wmo:42050:1,1996-11-09T15:00:00Z,28.8425,-94.2433,-2.0,22.78,11111222 
TABS,ioos:station:wmo:42050:1,1996-11-09T15:30:00Z,28.8425,-94.2433,-2.0,22.79,11111222 
TABS,ioos:station:wmo:42050:1,1996-11-09T16:00:00Z,28.8425,-94.2433,-2.0,22.78,11111222 
TABS,ioos:station:wmo:42050:1,1996-11-09T16:30:00Z,28.8425,-94.2433,-2.0,22.8,11111222 
TABS,ioos:station:wmo:42050:1,1996-11-09T17:00:00Z,28.8425,-94.2433,-2.0,22.81,11111222 
TABS,ioos:station:wmo:42050:1,1996-11-09T17:30:00Z,28.8425,-94.2433,-2.0,22.83,11111222 
TABS,ioos:station:wmo:42050:1,1996-11-09T18:00:00Z,28.8425,-94.2433,-2.0,22.84,11111222 
TABS,ioos:station:wmo:42050:1,1996-11-09T18:30:00Z,28.8425,-94.2433,-2.0,22.83,11111222 
TABS,ioos:station:wmo:42050:1,1996-11-09T19:00:00Z,28.8425,-94.2433,-2.0,22.83,11111222 
TABS,ioos:station:wmo:42050:1,1996-11-09T19:30:00Z,28.8425,-94.2433,-2.0,22.85,11111222 
TABS,ioos:station:wmo:42050:1,1996-11-09T20:00:00Z,28.8425,-94.2433,-2.0,22.83,11111222 
TABS,ioos:station:wmo:42050:1,1996-11-09T20:30:00Z,28.8425,-94.2433,-2.0,22.83,11111222 
TABS,ioos:station:wmo:42050:1,1996-11-09T21:00:00Z,28.8425,-94.2433,-2.0,22.82,11111222 
TABS,ioos:station:wmo:42050:1,1996-11-09T21:30:00Z,28.8425,-94.2433,-2.0,22.79,11111222 
TABS,ioos:station:wmo:42050:1,1996-11-09T22:00:00Z,28.8425,-94.2433,-2.0,22.78,11111222 
TABS,ioos:station:wmo:42050:1,1996-11-09T22:30:00Z,28.8425,-94.2433,-2.0,22.74,11111222 
TABS,ioos:station:wmo:42050:1,1996-11-09T23:00:00Z,28.8425,-94.2433,-2.0,22.71,11111222 
TABS,ioos:station:wmo:42050:1,1996-11-09T23:30:00Z,28.8425,-94.2433,-2.0,22.7,11111222 
TABS,ioos:station:wmo:42050:1,1996-11-10T00:00:00Z,28.8425,-94.2433,-2.0,22.66,11111222 
TABS,ioos:station:wmo:42050:1,1996-11-10T00:30:00Z,28.8425,-94.2433,-2.0,22.64,11111222 
TABS,ioos:station:wmo:42050:1,1996-11-10T01:00:00Z,28.8425,-94.2433,-2.0,22.64,11111222 
TABS,ioos:station:wmo:42050:1,1996-11-10T01:30:00Z,28.8425,-94.2433,-2.0,22.61,11111222 
TABS,ioos:station:wmo:42050:1,1996-11-10T02:00:00Z,28.8425,-94.2433,-2.0,22.61,11111222 
TABS,ioos:station:wmo:42050:1,1996-11-10T02:30:00Z,28.8425,-94.2433,-2.0,22.66,11111222 
TABS,ioos:station:wmo:42050:1,1996-11-10T03:00:00Z,28.8425,-94.2433,-2.0,22.67,11111222 
TABS,ioos:station:wmo:42050:1,1996-11-10T03:30:00Z,28.8425,-94.2433,-2.0,22.68,11111222 
TABS,ioos:station:wmo:42050:1,1996-11-10T04:00:00Z,28.8425,-94.2433,-2.0,22.68,11111222 
TABS,ioos:station:wmo:42050:1,1996-11-10T04:30:00Z,28.8425,-94.2433,-2.0,22.66,11111222 
TABS,ioos:station:wmo:42050:1,1996-11-10T05:00:00Z,28.8425,-94.2433,-2.0,22.65,11111222 
TABS,ioos:station:wmo:42050:1,1996-11-10T05:30:00Z,28.8425,-94.2433,-2.0,22.63,11111222 
TABS,ioos:station:wmo:42050:1,1996-11-10T06:00:00Z,28.8425,-94.2433,-2.0,22.64,11111222 
TABS,ioos:station:wmo:42050:1,1996-11-10T06:30:00Z,28.8425,-94.2433,-2.0,22.62,11111222 
TABS,ioos:station:wmo:42050:1,1996-11-10T07:00:00Z,28.8425,-94.2433,-2.0,22.59,11111222 
TABS,ioos:station:wmo:42050:1,1996-11-10T07:30:00Z,28.8425,-94.2433,-2.0,22.59,11111222 
TABS,ioos:station:wmo:42050:1,1996-11-10T08:00:00Z,28.8425,-94.2433,-2.0,22.6,11111222 
TABS,ioos:station:wmo:42050:1,1996-11-10T08:30:00Z,28.8425,-94.2433,-2.0,22.6,11111222 
TABS,ioos:station:wmo:42050:1,1996-11-10T09:00:00Z,28.8425,-94.2433,-2.0,22.6,11111222 
TABS,ioos:station:wmo:42050:1,1996-11-10T09:30:00Z,28.8425,-94.2433,-2.0,22.6,11111222 
TABS,ioos:station:wmo:42050:1,1996-11-10T10:00:00Z,28.8425,-94.2433,-2.0,22.6,11111222 
TABS,ioos:station:wmo:42050:1,1996-11-10T10:30:00Z,28.8425,-94.2433,-2.0,22.6,11111222 
TABS,ioos:station:wmo:42050:1,1996-11-10T11:00:00Z,28.8425,-94.2433,-2.0,22.59,11111222 
TABS,ioos:station:wmo:42050:1,1996-11-10T11:30:00Z,28.8425,-94.2433,-2.0,22.59,11111222 
TABS,ioos:station:wmo:42050:1,1996-11-10T12:00:00Z,28.8425,-94.2433,-2.0,22.59,11111222 
TABS,ioos:station:wmo:42050:1,1996-11-10T12:30:00Z,28.8425,-94.2433,-2.0,22.59,11111222 
TABS,ioos:station:wmo:42050:1,1996-11-10T13:00:00Z,28.8425,-94.2433,-2.0,22.6,11111222 
TABS,ioos:station:wmo:42050:1,1996-11-10T13:30:00Z,28.8425,-94.2433,-2.0,22.61,11111222 
TABS,ioos:station:wmo:42050:1,1996-11-10T14:00:00Z,28.8425,-94.2433,-2.0,22.61,11111222 
TABS,ioos:station:wmo:42050:1,1996-11-10T14:30:00Z,28.8425,-94.2433,-2.0,22.6,11111222 
TABS,ioos:station:wmo:42050:1,1996-11-10T15:00:00Z,28.8425,-94.2433,-2.0,22.59,11111222 
TABS,ioos:station:wmo:42050:1,1996-11-10T15:30:00Z,28.8425,-94.2433,-2.0,22.6,11111222 
TABS,ioos:station:wmo:42050:1,1996-11-10T16:00:00Z,28.8425,-94.2433,-2.0,22.63,11111222 
TABS,ioos:station:wmo:42050:1,1996-11-10T16:30:00Z,28.8425,-94.2433,-2.0,22.66,11111222 
TABS,ioos:station:wmo:42050:1,1996-11-10T17:00:00Z,28.8425,-94.2433,-2.0,22.69,11111222 
TABS,ioos:station:wmo:42050:1,1996-11-10T17:30:00Z,28.8425,-94.2433,-2.0,22.72,11111222 
TABS,ioos:station:wmo:42050:1,1996-11-10T18:00:00Z,28.8425,-94.2433,-2.0,22.75,11111222 
TABS,ioos:station:wmo:42050:1,1996-11-10T18:30:00Z,28.8425,-94.2433,-2.0,22.79,11111222 
TABS,ioos:station:wmo:42050:1,1996-11-10T19:00:00Z,28.8425,-94.2433,-2.0,22.86,11111222 
TABS,ioos:station:wmo:42050:1,1996-11-10T19:30:00Z,28.8425,-94.2433,-2.0,22.89,11111222 
TABS,ioos:station:wmo:42050:1,1996-11-10T20:00:00Z,28.8425,-94.2433,-2.0,22.93,11111222 
TABS,ioos:station:wmo:42050:1,1996-11-10T20:30:00Z,28.8425,-94.2433,-2.0,22.92,11111222 
TABS,ioos:station:wmo:42050:1,1996-11-10T21:00:00Z,28.8425,-94.2433,-2.0,22.91,11111222 
TABS,ioos:station:wmo:42050:1,1996-11-10T21:30:00Z,28.8425,-94.2433,-2.0,22.89,11111222 
TABS,ioos:station:wmo:42050:1,1996-11-10T22:00:00Z,28.8425,-94.2433,-2.0,22.87,11111222 
TABS,ioos:station:wmo:42050:1,1996-11-10T22:30:00Z,28.8425,-94.2433,-2.0,22.83,11111222 
TABS,ioos:station:wmo:42050:1,1996-11-10T23:00:00Z,28.8425,-94.2433,-2.0,22.81,11111222 
TABS,ioos:station:wmo:42050:1,1996-11-10T23:30:00Z,28.8425,-94.2433,-2.0,22.77,11111222 
TABS,ioos:station:wmo:42050:1,1996-11-11T00:00:00Z,28.8425,-94.2433,-2.0,22.73,11111222 
TABS,ioos:station:wmo:42050:1,1996-11-11T00:30:00Z,28.8425,-94.2433,-2.0,22.71,11111222 
TABS,ioos:station:wmo:42050:1,1996-11-11T01:00:00Z,28.8425,-94.2433,-2.0,22.7,11111222 
TABS,ioos:station:wmo:42050:1,1996-11-11T01:30:00Z,28.8425,-94.2433,-2.0,22.68,11111222 
TABS,ioos:station:wmo:42050:1,1996-11-11T02:00:00Z,28.8425,-94.2433,-2.0,22.68,11111222 
TABS,ioos:station:wmo:42050:1,1996-11-11T02:30:00Z,28.8425,-94.2433,-2.0,22.67,11111222 
TABS,ioos:station:wmo:42050:1,1996-11-11T03:00:00Z,28.8425,-94.2433,-2.0,22.65,11111222 
TABS,ioos:station:wmo:42050:1,1996-11-11T03:30:00Z,28.8425,-94.2433,-2.0,22.65,11111222 
TABS,ioos:station:wmo:42050:1,1996-11-11T04:00:00Z,28.8425,-94.2433,-2.0,22.66,11111222 
TABS,ioos:station:wmo:42050:1,1996-11-11T04:30:00Z,28.8425,-94.2433,-2.0,22.63,11111222 
TABS,ioos:station:wmo:42050:1,1996-11-11T05:00:00Z,28.8425,-94.2433,-2.0,22.58,11111222 
TABS,ioos:station:wmo:42050:1,1996-11-11T05:30:00Z,28.8425,-94.2433,-2.0,22.55,11111222 
TABS,ioos:station:wmo:42050:1,1996-11-11T06:00:00Z,28.8425,-94.2433,-2.0,22.53,11111222 
TABS,ioos:station:wmo:42050:1,1996-11-11T06:30:00Z,28.8425,-94.2433,-2.0,22.53,11111222 
TABS,ioos:station:wmo:42050:1,1996-11-11T07:00:00Z,28.8425,-94.2433,-2.0,22.54,11111222 
TABS,ioos:station:wmo:42050:1,1996-11-11T07:30:00Z,28.8425,-94.2433,-2.0,22.52,11111222 
TABS,ioos:station:wmo:42050:1,1996-11-11T08:00:00Z,28.8425,-94.2433,-2.0,22.52,11111222 
TABS,ioos:station:wmo:42050:1,1996-11-11T08:30:00Z,28.8425,-94.2433,-2.0,22.53,11111222 
TABS,ioos:station:wmo:42050:1,1996-11-11T09:00:00Z,28.8425,-94.2433,-2.0,22.52,11111222 
TABS,ioos:station:wmo:42050:1,1996-11-11T09:30:00Z,28.8425,-94.2433,-2.0,22.53,11111222 
TABS,ioos:station:wmo:42050:1,1996-11-11T10:00:00Z,28.8425,-94.2433,-2.0,22.53,11111222 
TABS,ioos:station:wmo:42050:1,1996-11-11T10:30:00Z,28.8425,-94.2433,-2.0,22.52,11111222 
TABS,ioos:station:wmo:42050:1,1996-11-11T11:00:00Z,28.8425,-94.2433,-2.0,22.49,11111222 
TABS,ioos:station:wmo:42050:1,1996-11-11T11:30:00Z,28.8425,-94.2433,-2.0,22.46,11111222 
TABS,ioos:station:wmo:42050:1,1996-11-11T12:00:00Z,28.8425,-94.2433,-2.0,22.45,11111222 
TABS,ioos:station:wmo:42050:1,1996-11-11T12:30:00Z,28.8425,-94.2433,-2.0,22.43,11111222 
TABS,ioos:station:wmo:42050:1,1996-11-11T13:00:00Z,28.8425,-94.2433,-2.0,22.42,11111222 
TABS,ioos:station:wmo:42050:1,1996-11-11T13:30:00Z,28.8425,-94.2433,-2.0,22.42,11111222 
TABS,ioos:station:wmo:42050:1,1996-11-11T14:00:00Z,28.8425,-94.2433,-2.0,22.4,11111222 
TABS,ioos:station:wmo:42050:1,1996-11-11T14:30:00Z,28.8425,-94.2433,-2.0,22.38,11111222 
TABS,ioos:station:wmo:42050:1,1996-11-11T15:00:00Z,28.8425,-94.2433,-2.0,22.37,11111222 
TABS,ioos:station:wmo:42050:1,1996-11-11T15:30:00Z,28.8425,-94.2433,-2.0,22.38,11111222 
TABS,ioos:station:wmo:42050:1,1996-11-11T16:00:00Z,28.8425,-94.2433,-2.0,22.41,11111222 
TABS,ioos:station:wmo:42050:1,1996-11-11T16:30:00Z,28.8425,-94.2433,-2.0,22.45,11111222 
TABS,ioos:station:wmo:42050:1,1996-11-11T17:00:00Z,28.8425,-94.2433,-2.0,22.45,11111222 
TABS,ioos:station:wmo:42050:1,1996-11-11T17:30:00Z,28.8425,-94.2433,-2.0,22.53,11111222 
TABS,ioos:station:wmo:42050:1,1996-11-11T18:00:00Z,28.8425,-94.2433,-2.0,22.54,11111222 
TABS,ioos:station:wmo:42050:1,1996-11-11T18:30:00Z,28.8425,-94.2433,-2.0,22.58,11111222 
TABS,ioos:station:wmo:42050:1,1996-11-11T19:00:00Z,28.8425,-94.2433,-2.0,22.7,11111222 
TABS,ioos:station:wmo:42050:1,1996-11-11T19:30:00Z,28.8425,-94.2433,-2.0,22.92,11111222 
TABS,ioos:station:wmo:42050:1,1996-11-11T20:00:00Z,28.8425,-94.2433,-2.0,22.92,11111222 
TABS,ioos:station:wmo:42050:1,1996-11-11T20:30:00Z,28.8425,-94.2433,-2.0,22.94,11111222 
TABS,ioos:station:wmo:42050:1,1996-11-11T21:00:00Z,28.8425,-94.2433,-2.0,22.9,11111222 
TABS,ioos:station:wmo:42050:1,1996-11-11T21:30:00Z,28.8425,-94.2433,-2.0,22.84,11111222 
TABS,ioos:station:wmo:42050:1,1996-11-11T22:00:00Z,28.8425,-94.2433,-2.0,22.85,11111222 
TABS,ioos:station:wmo:42050:1,1996-11-11T22:30:00Z,28.8425,-94.2433,-2.0,22.82,11111222 
TABS,ioos:station:wmo:42050:1,1996-11-11T23:00:00Z,28.8425,-94.2433,-2.0,22.79,11111222 
TABS,ioos:station:wmo:42050:1,1996-11-11T23:30:00Z,28.8425,-94.2433,-2.0,22.79,11111222 
TABS,ioos:station:wmo:42050:1,1996-11-12T00:00:00Z,28.8425,-94.2433,-2.0,22.8,11111222 
TABS,ioos:station:wmo:42050:1,1996-11-12T00:30:00Z,28.8425,-94.2433,-2.0,22.78,11111222 
TABS,ioos:station:wmo:42050:1,1996-11-12T01:00:00Z,28.8425,-94.2433,-2.0,22.78,11111222 
TABS,ioos:station:wmo:42050:1,1996-11-12T01:30:00Z,28.8425,-94.2433,-2.0,22.76,11111222 
TABS,ioos:station:wmo:42050:1,1996-11-12T02:00:00Z,28.8425,-94.2433,-2.0,22.72,11111222 
TABS,ioos:station:wmo:42050:1,1996-11-12T02:30:00Z,28.8425,-94.2433,-2.0,22.71,11111222 
TABS,ioos:station:wmo:42050:1,1996-11-12T03:00:00Z,28.8425,-94.2433,-2.0,22.69,11111222 
TABS,ioos:station:wmo:42050:1,1996-11-12T03:30:00Z,28.8425,-94.2433,-2.0,22.66,11111222 
TABS,ioos:station:wmo:42050:1,1996-11-12T04:00:00Z,28.8425,-94.2433,-2.0,22.61,11111222 
TABS,ioos:station:wmo:42050:1,1996-11-12T04:30:00Z,28.8425,-94.2433,-2.0,22.55,11111222 
TABS,ioos:station:wmo:42050:1,1996-11-12T05:00:00Z,28.8425,-94.2433,-2.0,22.52,11111222 
TABS,ioos:station:wmo:42050:1,1996-11-12T05:30:00Z,28.8425,-94.2433,-2.0,22.51,11111222 
TABS,ioos:station:wmo:42050:1,1996-11-12T06:00:00Z,28.8425,-94.2433,-2.0,22.51,11111222 
TABS,ioos:station:wmo:42050:1,1996-11-12T06:30:00Z,28.8425,-94.2433,-2.0,22.51,11111222 
TABS,ioos:station:wmo:42050:1,1996-11-12T07:00:00Z,28.8425,-94.2433,-2.0,22.52,11111222 
TABS,ioos:station:wmo:42050:1,1996-11-12T07:30:00Z,28.8425,-94.2433,-2.0,22.52,11111222 
TABS,ioos:station:wmo:42050:1,1996-11-12T08:00:00Z,28.8425,-94.2433,-2.0,22.5,11111222 
TABS,ioos:station:wmo:42050:1,1996-11-12T08:30:00Z,28.8425,-94.2433,-2.0,22.5,11111222 
TABS,ioos:station:wmo:42050:1,1996-11-12T09:00:00Z,28.8425,-94.2433,-2.0,22.47,11111222 
TABS,ioos:station:wmo:42050:1,1996-11-12T09:30:00Z,28.8425,-94.2433,-2.0,22.47,11111222 
TABS,ioos:station:wmo:42050:1,1996-11-12T10:00:00Z,28.8425,-94.2433,-2.0,22.47,11111222 
TABS,ioos:station:wmo:42050:1,1996-11-12T10:30:00Z,28.8425,-94.2433,-2.0,22.47,11111222 
TABS,ioos:station:wmo:42050:1,1996-11-12T11:00:00Z,28.8425,-94.2433,-2.0,22.46,11111222 
TABS,ioos:station:wmo:42050:1,1996-11-12T11:30:00Z,28.8425,-94.2433,-2.0,22.43,11111222 
TABS,ioos:station:wmo:42050:1,1996-11-12T12:00:00Z,28.8425,-94.2433,-2.0,22.39,11111222 
TABS,ioos:station:wmo:42050:1,1996-11-12T12:30:00Z,28.8425,-94.2433,-2.0,22.34,11111222 
TABS,ioos:station:wmo:42050:1,1996-11-12T13:00:00Z,28.8425,-94.2433,-2.0,22.3,11111222 
TABS,ioos:station:wmo:42050:1,1996-11-12T13:30:00Z,28.8425,-94.2433,-2.0,22.27,11111222 
TABS,ioos:station:wmo:42050:1,1996-11-12T14:00:00Z,28.8425,-94.2433,-2.0,22.28,11111222 
TABS,ioos:station:wmo:42050:1,1996-11-12T14:30:00Z,28.8425,-94.2433,-2.0,22.29,11111222 
TABS,ioos:station:wmo:42050:1,1996-11-12T15:00:00Z,28.8425,-94.2433,-2.0,22.33,11111222 
TABS,ioos:station:wmo:42050:1,1996-11-12T15:30:00Z,28.8425,-94.2433,-2.0,22.81,11111222 
TABS,ioos:station:wmo:42050:1,1996-11-12T16:00:00Z,28.8425,-94.2433,-2.0,22.81,11111222 
TABS,ioos:station:wmo:42050:1,1996-11-12T16:30:00Z,28.8425,-94.2433,-2.0,22.81,11111222 
TABS,ioos:station:wmo:42050:1,1996-11-12T17:00:00Z,28.8425,-94.2433,-2.0,22.81,11111222 
TABS,ioos:station:wmo:42050:1,1996-11-12T17:30:00Z,28.8425,-94.2433,-2.0,22.82,11111222 
TABS,ioos:station:wmo:42050:1,1996-11-12T18:00:00Z,28.8425,-94.2433,-2.0,22.83,11111222 
TABS,ioos:station:wmo:42050:1,1996-11-12T18:30:00Z,28.8425,-94.2433,-2.0,22.83,11111222 
TABS,ioos:station:wmo:42050:1,1996-11-12T19:00:00Z,28.8425,-94.2433,-2.0,22.85,11111222 
TABS,ioos:station:wmo:42050:1,1996-11-12T19:30:00Z,28.8425,-94.2433,-2.0,22.85,11111222 
TABS,ioos:station:wmo:42050:1,1996-11-12T20:00:00Z,28.8425,-94.2433,-2.0,22.87,11111222 
TABS,ioos:station:wmo:42050:1,1996-11-12T20:30:00Z,28.8425,-94.2433,-2.0,22.87,11111222 
TABS,ioos:station:wmo:42050:1,1996-11-12T21:00:00Z,28.8425,-94.2433,-2.0,22.87,11111222 
TABS,ioos:station:wmo:42050:1,1996-11-12T21:30:00Z,28.8425,-94.2433,-2.0,22.86,11111222 
TABS,ioos:station:wmo:42050:1,1996-11-12T22:00:00Z,28.8425,-94.2433,-2.0,22.86,11111222 
TABS,ioos:station:wmo:42050:1,1996-11-12T22:30:00Z,28.8425,-94.2433,-2.0,22.84,11111222 